Location: El Barbasco
(9.9682°N, 67.7441°W)
Time: 11:42:51
(UTC+00:00)

Cosmos 1455 Rocket - Pass Details

Date: 05 August 2024
Orbit: 600 x 625 km, 82.5° (Epoch: 17 September)

Event Time Altitude Azimuth Distance (km) Brightness Sun altitude
Rises 23:28:44 0° 348° (NNW) 2,837 6.9 -9.3°
Reaches altitude 10° 23:30:58 10° 344° (NNW) 1,934 6.1 -9.8°
Maximum altitude 23:35:08 54° 267° (W) 733 3.8 -10.8°
Drops below altitude 10° 23:39:19 10° 190° (S) 1,939 5.5 -11.8°
Sets 23:41:34 0° 185° (S) 2,844 6.3 -12.3°
